STARLINK-2241, 48586

Orbit data source: Space-Track

STARLINK-2241, 48586 is a payload satellite owned by SpaceX/Seattle (US) in LEO that was launched on Sat, 15 May 2021 UTC via an FALCON 9 launch vehicle from the Air Force Eastern Test Range (AFETR). Payload-class satellites include a variety of spacecraft equipped with specific instruments for various scientific and technological missions. These include communications satellites like Starlink; space stations such as the ISS; scientific satellites like the Hubble; Earth observation satellites from companies like Planet Labs, Umbra, and HawkEye 360; GPS; miniature CubeSats for education and research; and military/defense satellites.

Loading next visibility...
Identifier
48586, 2021-041AK
Orbit
LEO
Country
Flag of USUS
Related business
Manufacturer
SpaceX/Seattle
Mission
Operational Commercial Communications
Bus & Motor
STARLINK, Unknown motor
Mass
260 kg wet, ~248 kg dry
Launch date (UTC)
2021-05-15 (5 years ago)
Launch vehicle
FALCON 9
Launch site
Air Force Eastern Test Range (AFETR)
Object type
Payload
Rocket body
Debris
Shape & HBR
Box + 1 Pan, 10.1 m
Radar Cross Section
13.562 m², Large (>1 m²)

Expand to show TLE details & history
Last TLE update: 2 days ago

TLE from 2 days ago
0 STARLINK-2241
1 48586U 21041AK  26171.02874566  .00002252  00000-0  84289-4 0  9990
2 48586  53.1602  32.8260 0001259  87.1036 273.0110 15.31707235280629
Epoch: 2026-06-20T00:41Z
TLE epoch observation values (Epoch: 2026-06-20T00:41:23.625Z)
Latitude
0.00004°
Longitude
114.22835°
Altitude
471.574 km
Speed
7.631 km/s
True Right ascension
02h 11m 18s
True Declination
0° 00' 00"
Sunlit
Object was in daylight at epoch
Visualization orbit readout
Latitude
Unknown
Longitude
Unknown
Altitude
Unknown
Speed
Unknown
Apparent Right ascension
Unknown
Apparent Declination
Unknown
Sunlit
N/A
Visualization observer readout
Local Sidereal Time
21:37:16
Azimuth
Unknown
Elevation
Unknown
Doppler factor
Unknown
Orbital elements
Apogee altitude
471.837 km
Perigee altitude
470.113 km
Semi-major axis
6,849.112 km
Eccentricity
0.00013
Inclination
53.1602°
RAAN
32.826°
Arg. of periapsis
87.1036°
True anomaly
272.99659°
Mean anomaly
273.011°
Eccentric anomaly
273.0038°
Mean motion
3.82906 °/min
Orbital period
94.02 mins
BSTAR
0.000084289
Loading maneuver chart data...
Computing Atmospheric mass density...
Loading historical data...
Loading historical data...
Loading historical data...
Loading historical data...
Loading historical data...
Loading historical data...
Loading historical data...

Documentation

Showing up to 5 results
|